Location: ??????
(41.3794°N, 22.5014°E)
Time: 07:23:47
(UTC+00:00)

USA 238 - Pass Details

Date: 30 November 2020
Orbit: 997 x 1215 km, 63.4° (Epoch: 11 January)

Event Time Altitude Azimuth Distance (km) Brightness Sun altitude
Rises 17:46:03 0° 225° (SW) 3,715 7.2 -30.3°
Reaches altitude 10° 17:48:38 10° 229° (SW) 2,781 6.5 -30.7°
Maximum altitude 17:55:05 61° 309° (NW) 1,162 3.9 -32.0°
Enters shadow 17:55:58 57° 343° (NNW) 1,217 3.9 -32.1°
